This is the latest recevied weather packets stored in our database for station/object W8LMG. If no packets are shown the sender has not sent any weather packets the latest 10 day(s).
| Time | Temp. | Humidity | Pressure | Rain* | Wind** | Luminosity | Snow |
|---|---|---|---|---|---|---|---|
| 1787769500 | 26.67° C | 66% | 1019 hPa | 0 mm | - | 627 W/m² | - |
| 1787769194 | 25.56° C | 70% | 1019 hPa | 0 mm | - | 599 W/m² | - |
| 1787768889 | 26.67° C | 64% | 1019 hPa | 0 mm | - | 641 W/m² | - |
| 1787768585 | 26.11° C | 69% | 1019 hPa | 0 mm | - | 586 W/m² | - |
| 1787768281 | 25.56° C | 65% | 1019.2 hPa | 0 mm | - | 465 W/m² | - |
| 1787767977 | 25.56° C | 67% | 1019.3 hPa | 0 mm | - | 476 W/m² | - |
| 1787767677 | 25.56° C | 69% | 1019.2 hPa | 0 mm | - | 262 W/m² | - |
| 1787767376 | 25° C | 72% | 1019.2 hPa | 0 mm | - | 111 W/m² | - |
| 1787767075 | 25° C | 70% | 1019.4 hPa | 0 mm | - | 125 W/m² | - |
| 1787766774 | 25° C | 70% | 1019.7 hPa | 0 mm | - | 138 W/m² | - |
| 1787766473 | 25° C | 69% | 1019.6 hPa | 0 mm | - | 114 W/m² | - |
| 1787766168 | 25.56° C | 70% | 1019.6 hPa | 0 mm | - | 107 W/m² | - |
| 1787765863 | 25° C | 70% | 1019.7 hPa | 0 mm | - | 104 W/m² | - |
| 1787765560 | 25° C | 72% | 1019.5 hPa | 0 mm | - | 96 W/m² | - |
| 1787765260 | 24.44° C | 71% | 1019.8 hPa | 0 mm | - | 96 W/m² | - |
| 1787764959 | 25° C | 72% | 1019.9 hPa | 0 mm | - | 87 W/m² | - |
| 1787764655 | 25° C | 70% | 1019.8 hPa | 0 mm | - | 82 W/m² | - |
| 1787764355 | 25° C | 70% | 1019.9 hPa | 0 mm | - | 87 W/m² | - |
| 1787764051 | 24.44° C | 72% | 1019.8 hPa | 0 mm | - | 92 W/m² | - |
| 1787763746 | 24.44° C | 71% | 1020 hPa | 0 mm | - | 73 W/m² | - |
| 1787763442 | 24.44° C | 71% | 1020.2 hPa | 0 mm | - | 73 W/m² | - |
| 1787763142 | 24.44° C | 71% | 1020.1 hPa | 0 mm | - | 83 W/m² | - |
| 1787762841 | 24.44° C | 70% | 1020.1 hPa | 0 mm | - | 76 W/m² | - |
| 1787762536 | 24.44° C | 73% | 1020.3 hPa | 0 mm | - | 61 W/m² | - |
| 1787762233 | 23.89° C | 77% | 1020.2 hPa | 0 mm | - | 53 W/m² | - |
* Rain latest hour (hover to see other rain measurements)
** Current wind speed in m/s (hover to see current wind gust speed)